Terug naar catalogus

COSMOS 1275 DEB

ActiefPO
NORAD 42213·DEBRIS·🇷🇺 Russia

Gelanceerd Jun 4, 1981 vanaf Plesetsk Cosmodrome

Loading…

Volgende Passages (komende 24 uur)

TLE

VerouderendSource: Space-Track

Epoch: Sep 10, 2026, 00:28 UTC

1 42213U 81053UD  26253.01970207  .00002572  00000-0  11019-2 0  9993
2 42213  82.8193   4.6491 0043130 224.9169 134.8522 14.24053645216180

Volg COSMOS 1275 DEB in realtime met AllMySat

Download on the App Store